This is the latest recevied weather packets stored in our database for station/object K7UHP. If no packets are shown the sender has not sent any weather packets the latest 10 day(s).
| Time | Temp. | Humidity | Pressure | Rain* | Wind** | Luminosity | Snow |
|---|---|---|---|---|---|---|---|
| 1777587437 | 16.11° C | 34% | 1017.2 hPa | 0 mm | - | - | - |
| 1777586807 | 15.56° C | 34% | 1017.3 hPa | 0 mm | - | - | - |
| 1777586177 | 16.11° C | 32% | 1017.4 hPa | 0 mm | - | - | - |
| 1777585547 | 16.67° C | 33% | 1017.5 hPa | 0 mm | - | - | - |
| 1777584949 | 16.67° C | 35% | 1017.6 hPa | 0 mm | - | - | - |
| 1777584349 | 16.11° C | 34% | 1017.6 hPa | 0 mm | - | - | - |
| 1777583749 | 16.11° C | 35% | 1017.7 hPa | 0 mm | - | - | - |
| 1777583149 | 15° C | 34% | 1017.8 hPa | 0 mm | - | - | - |
| 1777582550 | 15° C | 35% | 1017.8 hPa | 0 mm | - | - | - |
| 1777581349 | 15° C | 36% | 1018.1 hPa | 0 mm | - | - | - |
| 1777580749 | 15° C | 38% | 1018.1 hPa | 0 mm | - | - | - |
| 1777580148 | 14.44° C | 39% | 1018.2 hPa | 0 mm | - | - | - |
| 1777579548 | 15° C | 37% | 1018.2 hPa | 0 mm | - | - | - |
| 1777578947 | 15.56° C | 36% | 1018.2 hPa | 0 mm | - | - | - |
| 1777578346 | 14.44° C | 36% | 1018.2 hPa | 0 mm | - | - | - |
| 1777577746 | 14.44° C | 39% | 1018.3 hPa | 0 mm | - | - | - |
| 1777577147 | 15° C | 37% | 1018.3 hPa | 0 mm | - | - | - |
| 1777576548 | 15° C | 35% | 1018.4 hPa | 0 mm | - | - | - |
| 1777575949 | 15° C | 37% | 1018.5 hPa | 0 mm | - | - | - |
| 1777575348 | 14.44° C | 38% | 1018.6 hPa | 0 mm | - | - | - |
| 1777574748 | 14.44° C | 36% | 1018.7 hPa | 0 mm | - | - | - |
| 1777574147 | 14.44° C | 35% | 1018.8 hPa | 0 mm | - | - | - |
| 1777573548 | 15° C | 37% | 1018.9 hPa | 0 mm | - | - | - |
| 1777572946 | 14.44° C | 39% | 1019 hPa | 0 mm | - | - | - |
| 1777572346 | 13.89° C | 38% | 1019 hPa | 0 mm | - | - | - |
* Rain latest hour (hover to see other rain measurements)
** Current wind speed in m/s (hover to see current wind gust speed)